Location: ???????
(55.5931°N, 39.3286°E)
Time: 15:56:35
(UTC+00:00)

Meteor 2-4 Rocket - Pass Details

Date: 14 April 2024
Orbit: 799 x 907 km, 81.2° (Epoch: 23 May)

Event Time Altitude Azimuth Distance (km) Brightness Sun altitude
Rises 01:18:53 0° 190° (S) 3,313 6.4 -8.7°
Reaches altitude 10° 01:21:14 10° 190° (S) 2,395 5.7 -8.4°
Maximum altitude 01:26:39 85° 103° (ESE) 836 3.8 -7.7°
Drops below altitude 10° 01:32:15 10° 15° (NNE) 2,474 6.8 -7.0°
Sets 01:34:43 0° 15° (NNE) 3,430 7.6 -6.7°
